Location: Bottom School (historical)
(37.9078°N, 89.3593°W)
Time: 18:15:58
(UTC+00:00)

Cosmos 1570 Rocket - Pass Details

Date: 12 July 2022
Orbit: 762 x 788 km, 74.1° (Epoch: 18 August)

Event Time Altitude Azimuth Distance (km) Brightness Sun altitude
Exits shadow 08:14:02 16° 284° (WNW) 1,904 5.9 -22.7°
Maximum altitude 08:15:14 18° 301° (WNW) 1,844 5.9 -22.6°
Drops below altitude 10° 08:18:42 10° 343° (NNW) 2,320 7.0 -22.2°
Sets 08:21:54 0° 3° (N) 3,257 8.2 -21.8°
